• în Republica Moldova
  • Lista ţărilor
  • Pe 7 zile
  • Temperatura apei
  • Hartă satelitară
  • Meteo pe hartă
  • Widget-uri
  • user-avatar
    Intrare

    Meteo pe oră la Innsbruck

    Astăzi, 28 Martie, Marţi

    Timp Temperatura Precipitaţii Vânt Presiune Umiditate
    00:00 -2°C° 0 mm 1 m/s 596 mmHg 95%
    01:00 -2°C° 0 mm 1 m/s 596 mmHg 95%
    02:00 -3°C° 0 mm 1 m/s 596 mmHg 94%
    03:00 -3°C° 0 mm 1 m/s 596 mmHg 94%
    04:00 -3°C° 0 mm 1 m/s 595 mmHg 94%
    05:00 -3°C° 0 mm 1 m/s 596 mmHg 92%
    06:00 -2°C° 0 mm 1 m/s 596 mmHg 91%
    07:00 -2°C° 0 mm 1 m/s 596 mmHg 89%
    08:00 +1°C° 0 mm 1 m/s 598 mmHg 84%
    09:00 +3°C° 0 mm 1 m/s 599 mmHg 79%
    10:00 +5°C° 0 mm 0 m/s 600 mmHg 74%
    11:00 +7°C° 0 mm 1 m/s 600 mmHg 72%
    12:00 +7°C° 0 mm 1 m/s 600 mmHg 70%
    13:00 +8°C° 0 mm 1 m/s 600 mmHg 69%
    14:00 +7°C° 0 mm 1 m/s 600 mmHg 72%
    15:00 +7°C° 0 mm 1 m/s 600 mmHg 76%
    16:00 +6°C° 0 mm 1 m/s 600 mmHg 79%
    17:00 +4°C° 0 mm 1 m/s 599 mmHg 84%
    18:00 +2°C° 0 mm 1 m/s 598 mmHg 89%
    19:00 0°C° 0 mm 1 m/s 597 mmHg 94%
    20:00 0°C° 0 mm 1 m/s 598 mmHg 95%
    21:00 0°C° 0 mm 1 m/s 598 mmHg 95%
    22:00 0°C° 0 mm 1 m/s 598 mmHg 96%
    23:00 0°C° 0 mm 1 m/s 599 mmHg 96%

    Mâine, 29 Martie, Miercuri

    Timp Temperatura Precipitaţii Vânt Presiune Umiditate
    00:00 0°C° 0 mm 1 m/s 599 mmHg 96%
    01:00 0°C° 0 mm 1 m/s 599 mmHg 96%
    02:00 0°C° 0 mm 1 m/s 599 mmHg 96%
    03:00 0°C° 0 mm 1 m/s 599 mmHg 96%
    04:00 0°C° 0 mm 1 m/s 599 mmHg 96%
    05:00 0°C° 0 mm 1 m/s 599 mmHg 96%
    06:00 0°C° 0 mm 1 m/s 599 mmHg 95%
    07:00 +1°C° 0 mm 1 m/s 600 mmHg 94%
    08:00 +2°C° 0 mm 1 m/s 600 mmHg 87%
    09:00 +4°C° 0 mm 1 m/s 601 mmHg 81%
    10:00 +6°C° 0 mm 1 m/s 602 mmHg 74%
    11:00 +6°C° 0 mm 1 m/s 602 mmHg 71%
    12:00 +7°C° 0 mm 1 m/s 602 mmHg 69%
    13:00 +8°C° 0 mm 1 m/s 602 mmHg 66%
    14:00 +8°C° 0 mm 1 m/s 602 mmHg 67%
    15:00 +7°C° 0 mm 1 m/s 602 mmHg 69%
    16:00 +7°C° 0 mm 1 m/s 601 mmHg 70%
    17:00 +5°C° 0 mm 1 m/s 601 mmHg 78%
    18:00 +3°C° 0 mm 1 m/s 600 mmHg 86%
    19:00 +1°C° 0 mm 1 m/s 599 mmHg 93%
    20:00 +1°C° 0 mm 1 m/s 599 mmHg 94%
    21:00 0°C° 0 mm 1 m/s 599 mmHg 95%
    22:00 0°C° 0 mm 1 m/s 599 mmHg 96%
    23:00 -1°C° 0 mm 1 m/s 599 mmHg 96%

    Poimâine, 30 Martie, Joi

    Timp Temperatura Precipitaţii Vânt Presiune Umiditate
    00:00 -1°C° 0 mm 1 m/s 599 mmHg 95%
    01:00 -2°C° 0 mm 1 m/s 599 mmHg 95%
    02:00 -2°C° 0 mm 1 m/s 598 mmHg 95%
    03:00 -3°C° 0 mm 1 m/s 598 mmHg 94%
    04:00 -3°C° 0 mm 1 m/s 598 mmHg 94%
    05:00 -3°C° 0 mm 0 m/s 598 mmHg 90%
    06:00 -2°C° 0 mm 0 m/s 599 mmHg 86%
    07:00 -1°C° 0 mm 0 m/s 600 mmHg 82%
    08:00 +2°C° 0 mm 0 m/s 601 mmHg 73%
    09:00 +4°C° 0 mm 0 m/s 602 mmHg 65%
    10:00 +8°C° 0 mm 1 m/s 603 mmHg 56%
    11:00 +9°C° 0 mm 1 m/s 603 mmHg 54%
    12:00 +10°C° 0 mm 1 m/s 603 mmHg 52%
    13:00 +10°C° 0 mm 1 m/s 604 mmHg 50%
    14:00 +10°C° 0 mm 1 m/s 603 mmHg 53%
    15:00 +10°C° 0 mm 1 m/s 603 mmHg 55%
    16:00 +10°C° 0 mm 1 m/s 602 mmHg 58%
    17:00 +7°C° 0 mm 1 m/s 601 mmHg 68%
    18:00 +4°C° 0 mm 1 m/s 599 mmHg 78%
    19:00 +1°C° 0 mm 1 m/s 598 mmHg 89%
    20:00 +1°C° 0 mm 1 m/s 598 mmHg 89%
    21:00 +1°C° 0 mm 1 m/s 599 mmHg 89%
    22:00 -1°C° 0 mm 2 m/s 599 mmHg 88%
    23:00 -2°C° 0 mm 2 m/s 599 mmHg 89%

    31 Martie, Vineri

    Timp Temperatura Precipitaţii Vânt Presiune Umiditate
    00:00 -2°C° 0 mm 2 m/s 599 mmHg 90%
    01:00 -2°C° 0 mm 2 m/s 598 mmHg 90%
    02:00 -2°C° 0 mm 2 m/s 598 mmHg 91%
    03:00 -2°C° 0 mm 2 m/s 598 mmHg 92%
    04:00 -2°C° 0 mm 2 m/s 598 mmHg 92%
    05:00 -2°C° 0 mm 2 m/s 598 mmHg 91%
    06:00 -2°C° 0 mm 2 m/s 598 mmHg 89%
    07:00 -1°C° 0 mm 2 m/s 598 mmHg 88%
    08:00 +2°C° 0 mm 2 m/s 598 mmHg 77%
    09:00 +5°C° 0 mm 2 m/s 599 mmHg 67%
    10:00 +8°C° 0 mm 1 m/s 600 mmHg 57%
    11:00 +9°C° 0 mm 1 m/s 600 mmHg 53%
    12:00 +10°C° 0 mm 1 m/s 600 mmHg 50%
    13:00 +10°C° 0 mm 2 m/s 601 mmHg 46%
    14:00 +10°C° 0 mm 2 m/s 600 mmHg 49%
    15:00 +9°C° 0 mm 2 m/s 600 mmHg 51%
    16:00 +9°C° 0 mm 2 m/s 599 mmHg 54%
    17:00 +7°C° 0,1 mm 1 m/s 598 mmHg 66%
    18:00 +4°C° 0,1 mm 1 m/s 597 mmHg 78%
    19:00 +1°C° 0,1 mm 1 m/s 595 mmHg 90%
    20:00 +1°C° 0,2 mm 1 m/s 595 mmHg 91%
    21:00 +1°C° 0,2 mm 1 m/s 595 mmHg 91%
    22:00 -1°C° 0,2 mm 2 m/s 596 mmHg 92%
    23:00 +1°C° 0 mm 1 m/s 595 mmHg 92%

    1 Aprilie, Sâmbătă

    Timp Temperatura Precipitaţii Vânt Presiune Umiditate
    00:00 0°C° 0 mm 1 m/s 595 mmHg 92%
    01:00 0°C° 0 mm 1 m/s 595 mmHg 92%
    02:00 0°C° 0 mm 1 m/s 595 mmHg 92%
    03:00 0°C° 0 mm 1 m/s 595 mmHg 91%
    04:00 0°C° 0 mm 1 m/s 595 mmHg 91%
    05:00 0°C° 0 mm 1 m/s 595 mmHg 89%
    06:00 0°C° 0 mm 1 m/s 595 mmHg 86%
    07:00 +1°C° 0 mm 1 m/s 595 mmHg 84%
    08:00 +3°C° 0 mm 1 m/s 595 mmHg 76%
    09:00 +5°C° 0 mm 1 m/s 596 mmHg 67%
    10:00 +7°C° 0 mm 1 m/s 597 mmHg 58%
    11:00 +6°C° 0 mm 2 m/s 597 mmHg 57%
    12:00 +7°C° 0 mm 2 m/s 597 mmHg 55%
    13:00 +8°C° 0 mm 2 m/s 597 mmHg 53%
    14:00 +7°C° 0,4 mm 2 m/s 596 mmHg 58%
    15:00 +7°C° 0,4 mm 2 m/s 596 mmHg 62%
    16:00 +6°C° 0,4 mm 2 m/s 596 mmHg 67%
    17:00 +4°C° 0,6 mm 2 m/s 595 mmHg 76%
    18:00 +3°C° 0,6 mm 1 m/s 594 mmHg 85%
    19:00 +1°C° 0,6 mm 1 m/s 593 mmHg 94%
    20:00 +1°C° 0,3 mm 1 m/s 593 mmHg 94%
    21:00 0°C° 0,3 mm 1 m/s 594 mmHg 94%
    22:00 -2°C° 0,3 mm 2 m/s 594 mmHg 95%
    23:00 -2°C° 0,1 mm 2 m/s 594 mmHg 95%

    2 Aprilie, Duminică

    Timp Temperatura Precipitaţii Vânt Presiune Umiditate
    00:00 -2°C° 0,1 mm 2 m/s 594 mmHg 94%
    01:00 -2°C° 0,1 mm 2 m/s 594 mmHg 94%
    02:00 -1°C° 0,1 mm 1 m/s 594 mmHg 94%
    03:00 -1°C° 0,1 mm 1 m/s 594 mmHg 94%
    04:00 -1°C° 0,1 mm 1 m/s 594 mmHg 93%
    05:00 -1°C° 0 mm 1 m/s 595 mmHg 90%
    06:00 0°C° 0 mm 1 m/s 595 mmHg 86%
    07:00 +1°C° 0 mm 1 m/s 596 mmHg 82%
    08:00 +2°C° 0 mm 1 m/s 597 mmHg 74%
    09:00 +3°C° 0 mm 0 m/s 598 mmHg 67%
    10:00 +5°C° 0 mm 0 m/s 599 mmHg 59%
    11:00 +7°C° 0,1 mm 1 m/s 599 mmHg 57%
    12:00 +8°C° 0,1 mm 1 m/s 600 mmHg 55%
    13:00 +9°C° 0,1 mm 1 m/s 600 mmHg 53%
    14:00 +8°C° 0,3 mm 1 m/s 600 mmHg 56%
    15:00 +8°C° 0,3 mm 1 m/s 599 mmHg 60%
    16:00 +7°C° 0,3 mm 1 m/s 599 mmHg 63%
    17:00 +5°C° 0,4 mm 1 m/s 598 mmHg 73%
    18:00 +3°C° 0,4 mm 1 m/s 597 mmHg 83%
    19:00 +1°C° 0,4 mm 1 m/s 597 mmHg 93%
    20:00 +1°C° 0,2 mm 1 m/s 597 mmHg 94%
    21:00 +1°C° 0,2 mm 1 m/s 597 mmHg 94%
    22:00 -1°C° 0,2 mm 0 m/s 598 mmHg 95%
    23:00 +1°C° 0,1 mm 1 m/s 598 mmHg 95%
    Arată mai mult